Location: Ottawa
(45.4170°N, 75.7000°W)
Time: 14:21:23
(UTC-04:00)

Daily predictions for brighter satellites

Satellite Brightness Start Highest point End
(mag) Time Altitude Azimuth Time Altitude Azimuth Time Altitude Azimuth
Cosmos 1726 Rocket 3.7 19:21:53 10° S 19:26:06 52° E 19:30:19 10° NNE
SPOT 3 Rocket 4.1 19:25:45 10° S 19:30:51 64° WSW 19:36:00 10° NNW
Meteor 1-15 Rocket 4.5 19:25:20 10° SSW 19:31:14 83° W 19:37:06 10° N
BREEZE-M DEB (TANK) 2.5 19:29:15 10° WNW 19:32:06 32° N 19:33:57 10° ENE
Cosmos 1709 Rocket 4.1 19:26:21 10° S 19:32:42 83° E 19:39:07 10° N
Cosmos 1378 3.2 19:32:01 10° N 19:35:48 61° E 19:39:31 10° SSE
Cosmos 1898 Rocket 4.1 19:31:32 10° NNW 19:36:40 62° WSW 19:41:45 10° S
ATLAS CENTAUR R/B 4.0 19:20:21 10° NW 19:38:20 87° NE 19:43:56 10° SE
Cosmos 1544 4.5 19:36:59 10° SE 19:39:32 18° E 19:42:05 10° NE
Cosmos 1271 Rocket 3.1 19:35:55 10° SSW 19:39:39 69° W 19:43:31 10° N
Cosmos 2084 3.5 19:35:58 10° SSW 19:39:52 47° SE 19:43:37 10° NE
Cosmos 1943 4.1 19:35:01 10° SW 19:40:33 54° WNW 19:46:11 10° NNE
Cosmos 1814 Rocket 3.9 19:35:58 10° S 19:41:06 71° ESE 19:46:14 10° NNE
Cosmos 990 Rocket 4.1 19:37:49 10° NNW 19:43:01 84° WSW 19:48:09 10° SSE
Cosmos 1340 Rocket 3.3 19:41:43 10° NNW 19:45:45 65° W 19:49:47 10° S
Cosmos 1125 Rocket 4.2 19:42:19 10° N 19:47:12 36° ENE 19:52:03 10° SE
Resurs 01 Rocket 2.3 19:50:57 10° SE 19:54:55 34° ENE 19:58:54 10° N
Cosmos 2228 2.9 19:51:01 10° S 19:55:22 72° E 19:59:42 10° NNE
Cosmos 1805 4.5 19:52:29 10° SE 19:55:27 21° E 19:58:26 10° NE
USA 81 4.1 19:51:34 10° N 19:56:53 90° E 20:02:10 10° S
GP-B 4.1 19:53:46 10° NNE 19:57:30 26° E 20:01:09 10° SE
Envisat 3.7 19:54:45 10° SE 19:59:13 33° ENE 20:03:45 10° N
Cosmos 2184 Rocket 4.1 19:55:08 10° S 20:01:17 59° E 20:07:32 10° NNE
CZ-2D R/B 3.6 19:58:02 10° SE 20:01:39 43° ENE 20:05:17 10° N
Cosmos 1812 Rocket 4.4 20:00:59 10° SSE 20:04:52 30° E 20:08:46 10° NNE
Cosmos 304 Rocket 3.7 20:03:02 10° SSW 20:07:48 72° ESE 20:12:36 10° NNE
Meteor 1-24 Rocket 3.8 20:03:01 10° N 20:09:02 76° ENE 20:14:51 10° SSE
Cosmos 2058 Rocket 3.2 20:04:42 10° SSW 20:09:03 76° W 20:13:27 10° N
ATLAS 2AS CENTAUR R/B 4.0 20:03:08 10° NNW 20:10:21 33° NNE 20:15:31 17° E
USA 186 2.6 20:10:59 22° NE 20:10:59 22° NE 20:12:27 10° NNE
Cosmos 1943 Rocket 4.0 20:07:24 10° NW 20:12:17 32° WSW 20:17:11 10° SSW
Cosmos 1356 Rocket 3.6 20:12:12 10° NNW 20:16:31 78° W 20:20:48 10° S
Cosmos 841 Rocket 3.5 20:13:27 10° SSW 20:18:36 85° WNW 20:23:46 10° NNE
SJ-6B 3.3 20:15:01 10° S 20:19:00 63° W 20:22:54 10° NNW
NOSS 3-1 (A) 4.1 20:12:33 10° NW 20:20:08 85° SW 20:28:17 11° SSE
Cosmos 1953 3.6 20:22:47 23° ENE 20:22:47 23° ENE 20:25:22 10° NNE
Cosmos 2327 Rocket 4.3 20:16:38 10° S 20:22:43 77° E 20:28:49 10° N
ALOS 4.3 20:21:24 10° SSW 20:25:29 30° W 20:29:37 10° NNW
Cosmos 1697 Rocket 4.2 20:22:26 10° N 20:26:27 19° NE 20:28:06 17° ENE
Cosmos 1980 Rocket 4.1 20:24:19 10° N 20:26:58 13° NE 20:28:39 12° ENE
H-2A R/B 4.5 20:34:31 10° SSW 20:37:53 32° W 20:41:18 10° NNW
Cosmos 540 Rocket 3.3 20:34:12 10° SSW 20:39:16 76° ESE 20:44:24 10° NNE
Helios 1A 4.2 20:40:39 26° NE 20:40:39 26° NE 20:43:43 10° N
MOS 1-B Rocket 3.9 20:46:10 11° SSE 20:52:13 86° WSW 20:57:55 10° NNW
Cosmos 1766 4.5 20:52:30 10° SSW 20:56:15 43° WNW 21:00:00 10° N
COSMOS 2406 3.4 20:52:00 10° SSW 20:57:42 74° WNW 21:03:29 10° NNE
BREEZE M DEB (TANK) 4.1 20:54:23 10° WNW 20:59:31 30° SW 21:00:22 26° SSW
ARGOS 4.2 21:01:13 28° ENE 21:01:13 28° ENE 21:05:30 10° N
Cosmos 1758 3.2 21:04:39 69° SSW 21:05:07 88° W 21:09:09 10° N
Spot 2 Rocket 3.9 21:01:55 17° S 21:05:43 60° WSW 21:10:44 10° NNW
Meteor 1-21 Rocket 4.1 21:00:08 10° N 21:05:56 81° E 21:08:07 40° SSE
Cosmos 2154 Rocket 4.0 21:00:07 10° S 21:06:21 84° W 21:12:40 10° N
YAOGAN 6 3.4 21:09:19 44° N 21:09:19 44° N 21:11:54 10° N
Cosmos 2369 3.7 21:05:35 10° NNW 21:11:12 59° ENE 21:11:53 55° E
Cosmos 1674 3.0 21:11:01 10° NNW 21:14:20 61° NW 21:14:20 61° NW
Cosmos 1939 Rocket 3.0 21:16:01 65° W 21:16:01 65° W 21:19:57 10° NNW
Cosmos 2341 Rocket 3.9 21:10:41 10° S 21:16:54 85° E 21:23:09 10° N
Cosmos 1076 Rocket 3.7 21:15:19 10° N 21:19:00 61° N 21:19:00 61° N
Cosmos 783 Rocket 4.4 21:18:35 10° SSW 21:23:47 84° WNW 21:29:02 10° NNE
ERS-1 Rocket 3.4 21:31:51 50° NNE 21:31:51 50° NNE 21:35:52 10° N
Resurs 01 Rocket 3.6 21:28:06 12° SSW 21:31:26 26° W 21:35:08 10° NW
GEOS 3 Rocket 4.5 21:34:02 38° SSW 21:34:02 38° SSW 21:37:19 10° SSW
FALCON 9 R/B 3.6 21:32:13 10° SW 21:34:47 27° SSW 21:34:47 27° SSW
Cosmos 1959 Rocket 4.5 21:38:41 63° ENE 21:38:41 63° ENE 21:44:19 10° NNE
Envisat 4.5 21:34:58 17° SSW 21:38:12 33° W 21:42:48 10° NNW
Cosmos 292 Rocket 4.1 21:42:03 63° NW 21:42:03 63° NW 21:46:45 10° NNE
Cosmos 2366 rocket 4.2 21:44:11 58° NE 21:44:11 58° NE 21:49:27 10° NNE
Cosmos 2218 Rocket 3.9 21:45:54 71° NE 21:45:54 71° NE 21:51:35 10° NNE
Cosmos 2285 Rocket 3.9 21:46:04 81° SE 21:46:16 83° ESE 21:52:44 10° NNE
Cosmos 2278 3.7 21:40:35 10° NNW 21:46:08 79° W 21:46:08 79° W
H-2A R/B 3.3 21:49:43 30° NNE 21:49:43 30° NNE 21:52:31 10° N
Meteor 2-21 4.5 21:49:26 60° SSW 21:50:34 78° W 21:56:44 10° N
Cosmos 1953 4.3 21:58:27 27° WNW 21:58:27 27° WNW 22:01:51 10° NNW
Cosmos 2322 Rocket 4.0 21:56:14 10° N 21:59:11 20° NNE 21:59:11 20° NNE
ATLAS 2AS CENTAUR R/B 2.8 21:54:18 10° NW 22:02:24 89° WSW 22:02:57 79° SSE
Cosmos 1727 Rocket 4.2 22:04:43 10° N 22:10:13 69° NNW 22:10:13 69° NNW
Cosmos 1697 Rocket 3.3 22:05:30 10° NNW 22:09:50 54° NNW 22:09:50 54° NNW
SL-8 Rocket 4.4 22:11:19 56° WSW 22:11:59 59° WNW 22:18:05 10° N
Cosmos 1980 Rocket 3.1 22:06:37 10° NNW 22:10:25 41° N 22:10:25 41° N
Cosmos 1656 4.4 22:10:48 10° NNW 22:15:21 49° WNW 22:15:21 49° WNW
Terra 4.2 22:24:58 17° N 22:24:58 17° N 22:26:05 10° N
BREEZE-M DEB (TANK) 3.9 22:12:31 10° WNW 22:24:49 66° NW 22:24:49 66° NW
USA 267 4.1 22:29:38 40° NNE 22:29:53 41° NNE 22:35:54 10° NW
SL-16 R/B 3.9 22:32:26 10° NNW 22:35:11 25° N 22:35:11 25° N
Cosmos 2082 Rocket 4.5 23:30:47 19° N 23:30:47 19° N 23:32:42 10° N
